SCP
1 1 1 1 1 1 1 1 1 0 0 0 0 0 0 0 0 0 0 0 0 0 0 0 0 0 0 0 0 0 0 0 0 0 0 0 0 0 0 0 0 0 0
1 1 1 1 1 1 1 1 1 0 0 0 0 0 0 0 0 0 0 0 0 0 0 0 0 0 0 0 0 0 0 0 0 0 0 0 0 0 0 0 0 0 0
1 1 1 1 1 1 1 1 1 0 0 0 0 0 0 0 0 0 0 0 0 0 0 0 0 0 0 0 0 0 0 0 0 0 0 0 0 0 0 0 0 0 0
1 1 1 1 1 1 1 1 1 0 0 0 0 0 0 0 0 0 0 0 0 0 0 0 0 0 0 0 0 0 0 0 0 0 0 0 0 0 0 0 0 0 0
1 1 1 1 1 1 1 1 1 0 0 0 0 0 0 0 0 0 0 0 0 0 0 0 0 0 0 0 0 0 0 0 0 0 0 0 0 0 0 0 0 0 0
1 1 1 1 1 1 1 1 1 0 0 0 0 0 0 0 0 0 0 0 0 0 0 0 0 0 0 0 0 0 0 0 0 0 0 0 0 0 0 0 0 0 0
1 1 1 1 1 1 1 1 1 0 0 0 0 0 0 0 0 0 0 0 0 0 0 0 0 0 0 0 0 0 0 0 0 0 0 0 0 0 0 0 0 0 0
1 1 1 1 1 1 1 1 1 1 0 0 0 0 0 0 0 0 0 0 0 0 0 0 0 0 0 0 0 0 0 0 0 0 0 0 0 0 0 0 0 0 0
1 1 1 1 1 1 1 1 1 1 0 0 0 0 0 0 0 0 0 0 0 0 0 0 0 0 0 0 0 0 0 0 0 0 0 0 0 0 0 0 0 0 0
1 1 1 1 1 1 1 1 1 1 0 0 0 0 0 0 0 0 0 0 0 0 0 0 0 0 0 0 0 0 0 0 0 0 0 0 0 0 0 0 0 0 0
1 1 1 1 1 1 1 1 1 1 1 0 0 0 0 0 0 0 0 0 0 0 0 0 0 0 0 0 0 0 0 0 0 0 0 0 0 0 0 0 0 0 0
1 1 1 1 1 1 1 1 1 1 1 1 0 0 0 0 0 0 0 0 0 0 0 0 0 0 0 0 0 0 0 0 0 0 0 0 0 0 0 0 0 0 0
1 1 1 1 1 1 1 1 1 1 1 1 1 0 0 0 0 0 0 0 0 0 0 0 0 0 0 0 0 0 0 0 0 0 0 0 0 0 0 0 0 0 0
1 1 1 1 1 1 1 1 1 1 1 1 1 1 0 0 0 0 0 0 0 0 0 0 0 0 0 0 0 0 0 0 0 0 0 0 0 0 0 0 0 0 0
2 1 1 1 1 1 1 1 1 1 1 1 1 1 1 1 0 0 0 0 0 0 0 0 0 0 0 0 0 0 0 0 0 0 0 0 0 0 0 0 0 0 0
2 2 2 1 1 1 1 1 1 1 1 1 1 1 1 1 0 0 0 0 0 0 0 0 0 0 0 0 0 0 0 0 0 0 0 0 0 0 0 0 0 0 0
2 2 2 2 1 1 1 1 1 1 1 1 1 1 1 1 0 0 0 0 0 0 0 0 0 0 0 0 0 0 0 0 0 0 0 0 0 0 0 0 0 0 0
2 2 2 2 2 2 2 1 1 1 1 1 1 1 1 0 0 0 0 0 0 0 0 0 0 0 0 0 0 0 0 0 0 0 0 0 0 0 0 0 0 0 0
2 2 2 2 2 2 2 2 2 1 1 1 1 1 1 0 0 0 0 0 0 0 0 0 0 0 0 0 0 0 0 0 0 0 0 0 0 0 0 0 0 0 0
2 2 2 3 2 2 2 2 2 1 1 1 1 1 0 0 0 0 0 0 0 0 0 0 0 0 0 0 0 0 0 0 0 0 0 0 0 0 0 0 0 0 0
3 3 3 3 2 2 2 2 1 1 1 1 1 0 0 0 0 0 0 0 0 0 0 0 0 0 0 0 0 0 0 0 0 0 0 0 0 0 0 0 0 0 0
3 3 3 3 2 2 2 1 1 1 1 1 1 0 0 0 0 0 0 0 0 0 0 0 0 0 0 0 0 0 0 0 0 0 0 0 0 0 0 0 0 0 0
3 3 3 2 2 2 1 1 1 1 1 1 1 0 0 0 0 0 0 0 0 0 0 0 0 0 0 0 0 0 0 0 0 0 0 0 0 0 0 0 0 0 0
3 3 2 2 2 1 1 1 1 1 1 1 1 0 0 0 0 0 0 0 0 0 0 0 0 0 0 0 0 0 0 0 0 0 0 0 0 0 0 0 0 0 0
3 2 2 2 1 1 1 1 1 1 1 1 0 0 0 0 0 0 0 0 0 0 0 0 0 0 0 0 0 0 0 0 0 0 -0 -0 0 0 0 0 0 0 0
2 2 2 2 1 1 1 1 1 1 1 1 0 0 0 0 0 0 0 0 0 0 0 0 0 0 0 0 0 0 0 0 0 0 -0 -0 0 0 0 0 0 0 0
Wind_Speed
9 9 9 9 8 7 6 6 5 4 3 2 2 1 1 1 1 2 2 2 2 2 2 1 1 1 1 1 1 1 1 1 1 1 1 2 1 1 2 2 3 3 4
8 9 8 8 8 7 7 6 6 5 4 3 2 2 2 1 1 1 1 2 2 2 2 2 2 1 1 1 1 1 1 1 1 2 1 1 2 2 1 1 2 2 2
13 11 10 9 8 8 7 7 5 5 4 3 2 1 2 1 1 0 0 1 2 2 1 2 2 2 2 1 2 2 2 1 1 1 3 2 2 1 2 0 1 1 1
12 11 11 10 10 9 7 6 6 5 4 3 3 3 2 2 2 2 1 1 1 1 1 1 2 2 1 1 2 2 2 2 1 1 1 2 3 2 1 2 1 1 1
13 13 12 11 10 9 8 6 5 4 3 3 4 3 2 2 1 1 1 0 0 0 1 1 1 1 1 1 1 1 1 2 2 1 1 1 1 2 2 1 1 1 1
12 11 10 9 8 8 7 6 5 4 3 3 3 4 4 3 2 1 1 0 1 1 1 1 1 1 1 1 1 1 1 1 2 1 1 2 1 2 2 2 1 0 0
13 11 11 10 9 9 8 7 6 4 3 3 3 3 3 3 3 2 2 1 0 1 1 1 1 1 1 1 1 1 1 1 1 1 1 1 1 2 2 3 2 1 0
12 12 12 11 11 10 9 8 7 5 4 4 3 3 3 2 2 2 2 2 1 1 1 1 1 1 1 2 1 1 1 2 1 1 1 1 0 1 2 3 3 2 1
12 12 11 11 10 10 10 9 8 6 5 4 3 2 2 2 2 1 1 1 1 1 1 2 2 3 3 2 2 2 2 2 2 2 2 1 0 0 0 2 3 4 2
9 10 10 10 9 9 9 8 8 7 5 5 4 3 2 2 2 2 2 2 2 2 2 2 3 3 3 3 3 3 3 3 3 2 2 2 1 1 1 1 1 2 3
12 11 10 10 9 8 9 8 8 6 5 5 4 3 3 2 3 3 3 3 3 3 3 3 4 4 4 3 4 3 3 4 4 3 3 2 1 1 1 1 2 2 3
11 11 11 10 9 9 9 9 8 7 6 6 5 4 4 3 3 3 3 4 4 3 3 3 4 4 4 4 4 4 4 4 4 3 4 3 3 3 2 2 3 3 3
10 10 11 11 10 10 9 9 9 8 7 7 6 5 4 4 4 4 4 4 4 4 4 4 4 4 4 4 4 4 4 4 3 3 4 3 4 4 3 3 3 3 4
11 11 11 10 10 10 10 9 8 8 8 7 7 6 5 4 4 4 4 5 5 5 5 5 5 4 4 4 4 4 4 4 4 4 4 4 4 3 3 4 4 4 5
11 12 12 11 10 10 9 9 8 8 8 8 7 6 5 5 4 5 5 5 5 6 5 5 5 4 4 4 4 4 4 4 4 5 4 5 6 7 4 4 3 5 4
11 11 11 11 11 11 10 10 9 9 9 8 7 6 6 6 5 5 5 5 5 5 5 5 5 5 4 5 7 5 4 4 4 4 3 4 6 7 8 8 7 6 5
11 11 11 11 11 11 11 11 10 9 9 8 7 7 7 7 6 6 6 6 5 5 5 4 5 4 4 6 7 7 4 4 4 3 3 3 4 5 4 7 9 9 8
11 11 10 9 8 9 9 9 9 9 9 8 8 7 7 7 6 6 6 5 4 4 4 4 4 4 4 6 7 8 5 4 4 3 3 4 3 3 4 5 5 5 5
9 9 9 10 9 11 11 11 9 9 9 8 8 8 8 8 7 6 6 5 5 4 3 3 4 4 3 5 6 6 4 4 4 4 4 4 3 5 6 6 5 5 3
7 7 8 8 10 11 12 12 11 10 10 9 9 8 8 8 7 6 5 4 5 4 4 3 3 3 2 4 6 6 4 4 3 3 3 5 4 5 6 5 5 4 1
7 8 9 9 10 11 12 12 11 10 9 9 8 8 8 7 7 6 5 5 5 5 4 3 2 2 2 3 5 6 3 4 3 2 1 2 4 5 5 5 3 3 3
7 8 8 8 8 11 11 10 9 8 8 9 9 8 7 7 6 6 5 5 5 5 4 3 2 1 1 2 4 6 5 5 4 2 0 0 2 4 4 3 3 4 4
7 7 8 8 7 9 10 10 8 9 9 9 9 8 7 6 6 7 6 5 4 4 3 3 2 1 0 1 3 5 5 5 3 1 1 0 2 2 2 2 3 3 2
6 6 8 8 7 7 8 9 9 10 10 10 8 7 7 6 5 4 5 5 4 4 4 4 3 2 1 0 1 1 2 3 2 1 1 1 2 2 1 2 2 1 2
5 6 7 8 8 8 7 8 10 11 10 9 8 7 6 6 5 4 2 3 3 4 6 5 5 5 4 4 5 4 2 2 2 2 2 2 2 2 2 2 1 1 2
5 6 7 7 7 7 7 7 9 11 11 9 7 6 6 5 5 5 3 4 2 2 5 6 6 4 5 7 7 6 5 5 5 4 2 1 1 1 1 1 0 0 1
Wind_Direction
179 168 161 156 151 151 150 155 154 165 154 141 147 148 170 187 191 200 190 185 181 163 155 176 187 163 168 212 199 166 169 222 142 75 349 332 300 235 206 185 175 189 195
166 166 162 158 158 162 164 163 165 168 168 166 169 170 167 179 183 194 189 190 178 173 172 181 182 184 182 203 209 165 164 239 151 136 116 344 337 331 262 152 175 194 186
173 172 169 167 164 169 174 169 168 169 172 164 135 106 77 62 62 54 245 231 185 176 172 162 168 178 176 198 219 195 178 205 247 158 149 159 229 297 335 6 119 130 143
175 173 172 171 173 176 173 164 165 167 169 154 147 153 160 176 198 193 206 241 198 187 177 169 165 176 179 196 218 186 177 167 203 243 195 179 170 164 287 344 45 87 103
178 177 177 176 174 170 168 165 160 161 161 154 159 158 160 179 185 157 155 206 303 248 199 185 178 185 189 201 215 180 160 165 175 188 192 169 162 152 156 232 319 24 44
175 176 174 165 163 162 161 161 157 159 154 150 150 155 160 161 149 136 147 210 281 299 284 180 171 187 181 187 188 164 144 157 163 173 164 159 170 183 160 185 207 189 16
172 170 165 162 163 162 163 163 157 156 154 150 150 158 163 163 166 170 172 184 222 258 257 196 172 175 179 154 139 114 112 130 138 157 160 154 181 163 151 151 169 160 117
172 171 170 168 167 166 164 162 159 158 155 153 152 150 150 152 157 169 170 188 201 223 217 135 98 76 81 85 77 77 88 86 94 87 100 113 171 155 157 157 150 138 78
171 169 168 168 166 164 166 164 161 160 161 158 148 141 142 142 139 135 134 144 160 124 80 79 72 66 72 75 79 75 67 73 73 64 64 73 21 84 165 155 157 152 154
160 163 165 165 166 165 162 159 160 165 161 156 158 151 141 133 128 114 94 85 74 71 74 77 76 70 65 65 73 69 60 66 53 59 59 50 33 42 63 126 137 140 146
166 166 167 162 158 153 153 155 157 155 155 155 146 136 130 124 111 108 104 96 83 73 70 75 75 70 65 69 75 70 66 67 54 47 53 39 44 62 52 70 94 105 118
165 165 160 156 157 160 161 159 159 157 159 153 142 136 127 115 106 98 93 96 91 81 83 79 75 69 65 68 80 77 66 66 61 48 50 36 52 56 54 75 91 102 109
158 157 155 160 166 168 165 162 160 159 155 147 140 136 131 126 119 111 102 95 95 89 80 80 76 68 64 69 76 79 73 68 61 54 60 51 62 58 56 71 85 94 100
162 162 161 165 169 170 166 161 160 158 153 147 143 142 143 140 130 116 110 104 99 94 84 76 74 70 66 66 75 79 75 69 61 55 58 57 65 67 64 76 84 95 94
164 168 168 169 169 167 163 160 160 158 153 148 148 150 146 136 123 112 106 100 96 96 89 83 72 64 65 66 79 85 83 75 65 55 52 60 72 75 73 89 97 104 103
167 169 167 167 168 169 165 161 162 158 151 151 152 147 137 131 124 114 107 100 94 90 85 81 78 68 64 75 83 93 85 79 78 72 59 60 55 63 68 77 85 105 117
167 169 170 170 171 173 166 163 161 153 150 151 149 146 143 140 136 128 115 110 104 99 91 82 78 71 63 75 84 91 94 81 78 77 69 68 54 55 73 75 73 70 84
170 171 169 164 164 161 154 150 148 148 149 150 150 150 147 143 136 128 125 120 114 109 104 94 84 74 60 74 89 94 87 80 70 72 82 82 55 58 89 92 77 65 57
173 169 166 155 154 154 150 145 143 146 148 152 154 153 147 144 140 136 135 128 121 113 112 110 97 83 56 73 97 100 94 85 68 59 69 82 73 69 89 92 88 73 50
158 153 148 141 146 153 149 147 152 155 160 161 157 151 147 147 147 145 139 131 129 126 122 109 106 105 81 83 109 114 108 100 83 55 50 65 80 83 89 97 102 95 60
143 145 144 148 153 151 148 153 159 166 164 155 147 145 148 149 147 141 137 138 136 128 127 121 107 97 89 90 117 123 117 126 116 91 49 32 75 86 89 104 118 140 135
132 138 139 144 148 147 151 156 165 161 150 146 145 148 149 152 147 139 138 142 143 137 138 129 110 62 61 85 116 127 124 127 122 126 146 302 86 83 84 93 103 114 108
137 137 137 138 145 152 156 158 161 148 145 145 149 151 149 143 145 147 151 153 154 153 159 153 152 158 57 64 107 122 130 129 120 151 183 152 87 70 59 61 80 93 94
133 134 138 141 149 157 156 158 152 149 147 148 150 150 148 144 144 148 154 158 164 167 169 166 167 167 154 155 123 113 116 112 93 69 14 25 47 57 30 30 51 78 123
139 146 152 153 159 158 153 152 150 148 147 149 150 152 151 151 146 134 130 162 180 188 179 180 173 169 185 213 189 163 157 156 147 105 56 43 41 40 27 25 31 45 75
139 143 150 152 154 151 152 154 154 154 152 152 155 157 156 152 148 139 110 57 85 148 183 178 170 180 186 179 178 171 163 158 142 115 105 115 131 162 189 182 98 61 125